Printer-friendly version

IAU Minor Planet Center

Minor Planet Center

MPEC 2010-D53 : 2010 DX1

The following Minor Planet Electronic Circular may be linked-to from your own Web pages, but must not otherwise be redistributed electronically.

A form allowing access to any MPEC is at the bottom of this page.


Read MPEC 2010-D52 Read MPEC 2010-D54


M.P.E.C. 2010-D53                                Issued 2010 Feb. 19, 22:09 UT

     The Minor Planet Electronic Circulars contain information on unusual
         minor planets and routine data on comets.  They are published
   on behalf of Commission 20 of the International Astronomical Union by the
          Minor Planet Center, Smithsonian Astrophysical Observatory,
                          Cambridge, MA 02138, U.S.A.

             Prepared using the Tamkin Foundation Computer Network

                              MPC@CFA.HARVARD.EDU
          URL http://www.cfa.harvard.edu/iau/mpc.html  ISSN 1523-6714

                                   2010 DX1

Observations:
     K10D01X* C2010 02 19.28689 09 19 34.39 +39 06 55.5          17.9 V ED053703
     K10D01X  C2010 02 19.30269 09 19 33.60 +39 01 03.5          18.0 V ED053703
     K10D01X  C2010 02 19.31058 09 19 33.20 +38 58 06.4          18.3 V ED053703
     K10D01X  C2010 02 19.35052 09 19 31.40 +38 43 17.1          17.6 V ED053703
     K10D01X  C2010 02 19.35995 09 19 31.04 +38 39 48.3          17.6 V ED053703
     K10D01X  C2010 02 19.36947 09 19 30.61 +38 36 15.2          17.2 V ED053703
     K10D01X  C2010 02 19.37899 09 19 30.25 +38 32 45.3          17.2 V ED053703
     K10D01X  C2010 02 19.39030 09 19 29.87 +38 28 34.5          17.1 V ED053703
     K10D01X  C2010 02 19.40013 09 19 29.69 +38 25 03.5          17.2 V ED053703
     K10D01X  C2010 02 19.40318 09 19 29.24 +38 23 45.4          16.7 R ED053H01
     K10D01X  C2010 02 19.41004 09 19 29.16 +38 21 17.7          17.2 V ED053703
     K10D01X  C2010 02 19.41385 09 19 28.88 +38 19 49.1          16.7 R ED053H01
     K10D01X  C2010 02 19.41994 09 19 28.86 +38 17 38.1          17.2 V ED053703
     K10D01X  C2010 02 19.42076 09 19 28.70 +38 17 16.2          16.8 R ED053H01
     K10D01X  C2010 02 19.42423909 19 28.09 +38 15 37.6          17.1 V ED053H21
     K10D01X  C2010 02 19.42611409 19 28.06 +38 14 56.3          17.2 V ED053H21
     K10D01X  C2010 02 19.42691 09 19 28.54 +38 15 00.3          17.0 R ED053H01
     K10D01X  C2010 02 19.42797009 19 28.07 +38 14 15.1          17.2 V ED053H21
     K10D01X  C2010 02 19.42961609 19 28.01 +38 13 38.8          17.1 V ED053H21
     K10D01X  C2010 02 19.42987 09 19 28.60 +38 14 00.7          17.5 R ED053926
     K10D01X  C2010 02 19.43153 09 19 28.55 +38 13 24.0          17.5 R ED053926
     K10D01X  C2010 02 19.43318 09 19 28.51 +38 12 47.7          17.4 R ED053926
     K10D01X KC2010 02 19.81193 09 19 37.19 +35 58 32.7                 ED053J95
     K10D01X KC2010 02 19.81472 09 19 37.14 +35 57 36.1                 ED053J95
     K10D01X KC2010 02 19.81754 09 19 37.08 +35 56 38.6          17.6 R ED053J95

Observer details:
703 Catalina Sky Survey.  Observers S. M. Larson, A. . D. Grauer.  Measurers
    J. D. Ahern, E. C. Beshore, A. Boattini, G. J. Garradd, A. R. Gibbs,
    A. D. Grauer, R. E. Hill, R. A. Kowalski, S. M. Larson, R. H. McNaught.
    0.68-m Schmidt + CCD.
926 Tenagra II Observatory.  Observers P. R. Holvorcem, M. Schwartz.  Measurer
    P. R. Holvorcem.  0.81-m f/7 Ritchey-Chretien + CCD.
H01 Magdalena Ridge Observatory, Socorro.  Observer W. H. Ryan.  2.4-m f/8.9
    reflector + CCD.
H21 Astronomical Research Observatory, Westfield.  Observer R. Holmes.
    Measurer S. Foglia.
J95 Great Shefford.  Observer P. Birtwhistle.  0.40-m f/6.0 Schmidt-Cassegrain
    + CCD.

Orbital elements:
2010 DX1                                                 Earth MOID = 0.0709 AU
Epoch 2010 Jan. 4.0 TT = JDT 2455200.5                  MPC
M   0.33188              (2000.0)            P               Q
n   0.23587062     Peri.  102.08456     +0.21615801     -0.96434973
a   2.5942998      Node   333.86071     +0.70533361     +0.26234982
e   0.7072458      Incl.   20.27456     +0.67511497     +0.03467228
P   4.18           H   21.2           G   0.15           U   8
Residuals in seconds of arc
100219 703  0.7+  0.2+    100219 H01  0.3+  0.6+    100219 H21  0.2-  0.0
100219 703  0.2+  0.8+    100219 703  0.4-  0.2+    100219 926  0.5+  0.0
100219 703  0.2-  0.4-    100219 H01  0.2-  0.4+    100219 926  0.4+  0.0
100219 703  0.4-  0.5-    100219 703  0.4-  0.5-    100219 926  0.5+  0.1+
100219 703  0.0   0.2+    100219 H01  0.0   0.4+    100219 J95  0.0   0.2-
100219 703  0.6-  1.4-    100219 H21  0.0   0.1-    100219 J95  0.0   0.1+
100219 703  0.5-  0.1-    100219 H21  0.1-  0.1+    100219 J95  0.1-  0.1+
100219 703  0.0   0.1-    100219 H01  0.0   0.4+
100219 703 (1.9+  6.7+)   100219 H21  0.3+  0.1-

Ephemeris:
2010 DX1                 a,e,i = 2.59, 0.71, 20                  q = 0.7595
Date    TT    R. A. (2000) Decl.     Delta      r     Elong.  Phase     V
2010 02 13    20 46.19   +88 25.2    0.0782   1.006   102.0    73.7    18.3
2010 02 18    09 19.72   +47 53.1    0.0838   1.056   142.7    34.5    17.4
2010 02 23    09 19.68   +21 44.4    0.124    1.107   160.6    17.3    17.8
2010 02 28    09 20.49   +09 40.7    0.179    1.160   159.6    17.3    18.7
2010 03 05    09 21.82   +03 25.6    0.239    1.213   155.0    20.2    19.5
2010 03 10    09 23.66   -00 13.1    0.303    1.266   150.6    22.7    20.2
2010 03 15    09 25.99   -02 31.2    0.371    1.319   146.5    24.6    20.8
2010 03 20    09 28.83   -04 03.8    0.441    1.373   142.8    26.0    21.3
2010 03 25    09 32.14   -05 08.6    0.513    1.426   139.2    27.2    21.7
2010 03 30    09 35.88   -05 56.1    0.589    1.479   135.8    28.1    22.1
2010 04 04    09 40.00   -06 32.3    0.667    1.531   132.4    28.8    22.5

Sonia Keys                   (C) Copyright 2010 MPC           M.P.E.C. 2010-D53

Read MPEC 2010-D52 Read MPEC 2010-D54


MPEC number:

Enter an
MPEC number in one of the following forms:
  • 1997-B01 (the full form)
  • J97B01 (the packed version of the full form)
  • B01 (the abbreviated form)

Valid HTML 4.01!